Wetterdaten: Woche 12.02.18 - 18.02.18 (KW7)
Datum Zeit Temp. 2m rel. Feuchte Luftdruck Regen Wind Richtung Sonne ET UV-Index Solar Taupunkt Ben
12.02.2018 00:00 2,0 C 87 % 1006,9 hPa 0,0 mm 8,0 km/h (2 Bft) W 0,00 h 0,0 mm 0,0 UV-I 0 W/m 0,0 C 20,0 km/h (4 Bft)
12.02.2018 01:00 1,9 C 89 % 1007,7 hPa 0,0 mm 8,8 km/h (2 Bft) NW 0,00 h 0,0 mm 0,0 UV-I 0 W/m 0,3 C 19,6 km/h (3 Bft)
12.02.2018 02:00 1,6 C 93 % 1008,2 hPa 0,2 mm 10,3 km/h (2 Bft) W-NW 0,00 h 0,0 mm 0,0 UV-I 0 W/m 0,5 C 23,0 km/h (4 Bft)
12.02.2018 03:00 1,9 C 90 % 1008,6 hPa 0,0 mm 12,1 km/h (2 Bft) N-NW 0,00 h 0,0 mm 0,0 UV-I 0 W/m 0,4 C 25,5 km/h (4 Bft)
12.02.2018 04:00 2,0 C 89 % 1009,0 hPa 0,0 mm 13,7 km/h (3 Bft) N-NW 0,00 h 0,0 mm 0,0 UV-I 0 W/m 0,3 C 29,7 km/h (5 Bft)
12.02.2018 05:00 1,9 C 88 % 1009,6 hPa 0,0 mm 14,7 km/h (3 Bft) N-NW 0,00 h 0,0 mm 0,0 UV-I 0 W/m 0,2 C 28,5 km/h (4 Bft)
12.02.2018 06:00 1,8 C 89 % 1010,3 hPa 0,0 mm 11,8 km/h (2 Bft) N-NW 0,00 h 0,0 mm 0,0 UV-I 0 W/m 0,2 C 24,8 km/h (4 Bft)
12.02.2018 07:00 1,7 C 90 % 1011,1 hPa 0,0 mm 11,8 km/h (2 Bft) NW 0,00 h 0,0 mm 0,0 UV-I 2 W/m 0,2 C 27,8 km/h (4 Bft)
12.02.2018 08:00 1,7 C 89 % 1011,9 hPa 0,0 mm 11,1 km/h (2 Bft) NW 0,00 h 0,0 mm 0,0 UV-I 13 W/m 0,1 C 23,3 km/h (4 Bft)
12.02.2018 09:00 2,1 C 87 % 1012,7 hPa 0,0 mm 12,5 km/h (3 Bft) NW 0,00 h 0,0 mm 0,2 UV-I 59 W/m 0,2 C 27,2 km/h (4 Bft)
12.02.2018 10:00 2,6 C 84 % 1013,4 hPa 0,0 mm 17,6 km/h (3 Bft) NW 0,00 h 0,0 mm 0,1 UV-I 79 W/m 0,2 C 38,7 km/h (5 Bft)
12.02.2018 11:00 3,2 C 82 % 1014,3 hPa 0,0 mm 12,1 km/h (2 Bft) W-NW 0,00 h 0,1 mm 0,2 UV-I 154 W/m 0,3 C 32,0 km/h (5 Bft)
12.02.2018 12:00 4,1 C 76 % 1014,8 hPa 0,0 mm 10,8 km/h (2 Bft) W-NW 0,50 h 0,1 mm 0,2 UV-I 238 W/m 0,3 C 28,7 km/h (4 Bft)
12.02.2018 13:00 4,8 C 70 % 1015,0 hPa 0,0 mm 15,6 km/h (3 Bft) NW 0,58 h 0,1 mm 0,2 UV-I 311 W/m -0,3 C 36,6 km/h (5 Bft)
12.02.2018 14:00 5,1 C 66 % 1014,9 hPa 0,0 mm 13,9 km/h (3 Bft) NW 0,67 h 0,2 mm 0,2 UV-I 275 W/m -0,7 C 30,6 km/h (5 Bft)
12.02.2018 15:00 4,0 C 74 % 1015,3 hPa 0,0 mm 11,0 km/h (2 Bft) NW 0,00 h 0,1 mm 0,0 UV-I 51 W/m -0,3 C 28,0 km/h (4 Bft)
12.02.2018 16:00 2,2 C 90 % 1015,6 hPa 0,0 mm 5,9 km/h (2 Bft) W-SW 0,83 h 0,1 mm 0,0 UV-I 167 W/m 0,7 C 13,9 km/h (3 Bft)
12.02.2018 17:00 2,7 C 87 % 1015,7 hPa 0,2 mm 5,3 km/h (1 Bft) W-SW 0,58 h 0,1 mm 0,0 UV-I 31 W/m 0,7 C 12,9 km/h (3 Bft)
12.02.2018 18:00 2,2 C 86 % 1016,0 hPa 0,4 mm 5,8 km/h (2 Bft) NW 0,00 h 0,0 mm 0,0 UV-I 0 W/m 0,1 C 14,6 km/h (3 Bft)
12.02.2018 19:00 1,9 C 84 % 1016,3 hPa 0,0 mm 2,7 km/h (1 Bft) W 0,00 h 0,0 mm 0,0 UV-I 0 W/m -0,5 C 8,3 km/h (2 Bft)
12.02.2018 20:00 0,8 C 87 % 1016,6 hPa 0,0 mm 0,2 km/h (0 Bft) N 0,00 h 0,0 mm 0,0 UV-I 0 W/m -1,1 C 1,8 km/h (1 Bft)
12.02.2018 21:00 0,5 C 86 % 1016,7 hPa 0,0 mm 0,8 km/h (0 Bft) W 0,00 h 0,0 mm 0,0 UV-I 0 W/m -1,5 C 4,4 km/h (1 Bft)
12.02.2018 22:00 -0,2 C 86 % 1016,8 hPa 0,0 mm 0,3 km/h (0 Bft) S-SW 0,00 h 0,0 mm 0,0 UV-I 0 W/m -2,2 C 1,5 km/h (1 Bft)
12.02.2018 23:00 -0,9 C 89 % 1016,7 hPa 0,0 mm 1,8 km/h (1 Bft) S-SW 0,00 h 0,0 mm 0,0 UV-I 0 W/m -2,5 C 5,3 km/h (1 Bft)
13.02.2018 00:00 -1,3 C 90 % 1016,6 hPa 0,0 mm 1,3 km/h (1 Bft) S 0,00 h 0,0 mm 0,0 UV-I 0 W/m -2,7 C 4,0 km/h (1 Bft)
13.02.2018 01:00 -1,5 C 91 % 1016,5 hPa 0,0 mm 1,8 km/h (1 Bft) S 0,00 h 0,0 mm 0,0 UV-I 0 W/m -2,8 C 5,0 km/h (1 Bft)
13.02.2018 02:00 -1,1 C 89 % 1016,3 hPa 0,0 mm 2,4 km/h (1 Bft) S-SW 0,00 h 0,0 mm 0,0 UV-I 0 W/m -2,6 C 8,2 km/h (2 Bft)
13.02.2018 03:00 -1,3 C 89 % 1015,9 hPa 0,0 mm 2,6 km/h (1 Bft) S 0,00 h 0,0 mm 0,0 UV-I 0 W/m -2,9 C 7,8 km/h (2 Bft)
13.02.2018 04:00 -1,5 C 89 % 1015,5 hPa 0,0 mm 3,2 km/h (1 Bft) S-SO 0,00 h 0,0 mm 0,0 UV-I 0 W/m -3,0 C 8,1 km/h (2 Bft)
13.02.2018 05:00 -1,4 C 89 % 1015,2 hPa 0,0 mm 4,2 km/h (1 Bft) S 0,00 h 0,0 mm 0,0 UV-I 0 W/m -3,0 C 10,6 km/h (2 Bft)
13.02.2018 06:00 -1,4 C 89 % 1014,9 hPa 0,0 mm 5,1 km/h (1 Bft) S-SW 0,00 h 0,0 mm 0,0 UV-I 0 W/m -3,0 C 11,7 km/h (2 Bft)
13.02.2018 07:00 -1,0 C 87 % 1014,7 hPa 0,0 mm 4,9 km/h (1 Bft) S-SO 0,00 h 0,0 mm 0,0 UV-I 5 W/m -2,9 C 13,5 km/h (3 Bft)
13.02.2018 08:00 -1,1 C 88 % 1014,6 hPa 0,0 mm 5,6 km/h (1 Bft) S-SW 0,00 h 0,0 mm 0,0 UV-I 38 W/m -2,8 C 13,7 km/h (3 Bft)
13.02.2018 09:00 -0,1 C 86 % 1014,3 hPa 0,0 mm 9,5 km/h (2 Bft) S 1,00 h 0,0 mm 0,0 UV-I 201 W/m -2,2 C 21,3 km/h (4 Bft)
13.02.2018 10:00 1,2 C 83 % 1014,0 hPa 0,0 mm 9,2 km/h (2 Bft) S-SO 1,00 h 0,1 mm 0,1 UV-I 314 W/m -1,3 C 21,5 km/h (4 Bft)
13.02.2018 11:00 3,6 C 75 % 1013,7 hPa 0,2 mm 9,2 km/h (2 Bft) S-SO 1,00 h 0,1 mm 0,2 UV-I 392 W/m -0,5 C 23,1 km/h (4 Bft)
13.02.2018 12:00 4,9 C 66 % 1013,1 hPa 0,2 mm 11,1 km/h (2 Bft) S 0,92 h 0,2 mm 0,2 UV-I 376 W/m -0,9 C 25,2 km/h (4 Bft)
13.02.2018 13:00 5,4 C 61 % 1012,4 hPa 0,0 mm 11,4 km/h (2 Bft) S-SW 0,92 h 0,2 mm 0,2 UV-I 377 W/m -1,5 C 27,0 km/h (4 Bft)
13.02.2018 14:00 5,5 C 58 % 1011,6 hPa 0,0 mm 10,2 km/h (2 Bft) S-SW 0,42 h 0,2 mm 0,1 UV-I 224 W/m -2,0 C 24,1 km/h (4 Bft)
13.02.2018 15:00 5,7 C 54 % 1011,0 hPa 0,0 mm 9,8 km/h (2 Bft) S-SW 1,00 h 0,1 mm 0,1 UV-I 254 W/m -2,9 C 23,5 km/h (4 Bft)
13.02.2018 16:00 4,9 C 57 % 1010,7 hPa 0,0 mm 9,7 km/h (2 Bft) SO 0,83 h 0,1 mm 0,0 UV-I 129 W/m -3,0 C 24,1 km/h (4 Bft)
13.02.2018 17:00 3,9 C 61 % 1010,8 hPa 0,0 mm 7,1 km/h (2 Bft) S-SO 0,08 h 0,1 mm 0,0 UV-I 17 W/m -3,0 C 17,6 km/h (3 Bft)
13.02.2018 18:00 2,8 C 64 % 1011,0 hPa 0,0 mm 5,7 km/h (1 Bft) S-SO 0,00 h 0,0 mm 0,0 UV-I 0 W/m -3,3 C 14,6 km/h (3 Bft)
13.02.2018 19:00 2,2 C 67 % 1011,2 hPa 0,0 mm 6,3 km/h (2 Bft) S-SO 0,00 h 0,0 mm 0,0 UV-I 0 W/m -3,3 C 17,9 km/h (3 Bft)
13.02.2018 20:00 1,8 C 67 % 1011,6 hPa 0,0 mm 6,4 km/h (2 Bft) S-SO 0,00 h 0,0 mm 0,0 UV-I 0 W/m -3,8 C 15,9 km/h (3 Bft)
13.02.2018 21:00 1,1 C 69 % 1011,9 hPa 0,0 mm 5,3 km/h (1 Bft) S-SO 0,00 h 0,0 mm 0,0 UV-I 0 W/m -4,0 C 13,1 km/h (3 Bft)
13.02.2018 22:00 0,3 C 72 % 1012,2 hPa 0,0 mm 4,2 km/h (1 Bft) S-SO 0,00 h 0,0 mm 0,0 UV-I 0 W/m -4,1 C 10,2 km/h (2 Bft)
13.02.2018 23:00 -0,2 C 74 % 1012,4 hPa 0,0 mm 5,3 km/h (1 Bft) S-SO 0,00 h 0,0 mm 0,0 UV-I 0 W/m -4,2 C 13,1 km/h (3 Bft)
14.02.2018 00:00 -0,5 C 75 % 1012,8 hPa 0,0 mm 3,6 km/h (1 Bft) S-SO 0,00 h 0,0 mm 0,0 UV-I 0 W/m -4,3 C 8,9 km/h (2 Bft)
14.02.2018 01:00 -1,0 C 78 % 1013,0 hPa 0,0 mm 4,6 km/h (1 Bft) S-SO 0,00 h 0,0 mm 0,0 UV-I 0 W/m -4,4 C 10,4 km/h (2 Bft)
14.02.2018 02:00 -1,1 C 77 % 1013,5 hPa 0,0 mm 3,2 km/h (1 Bft) S 0,00 h 0,0 mm 0,0 UV-I 0 W/m -4,6 C 8,5 km/h (2 Bft)
14.02.2018 03:00 -1,5 C 79 % 1013,8 hPa 0,0 mm 4,0 km/h (1 Bft) S-SO 0,00 h 0,0 mm 0,0 UV-I 0 W/m -4,8 C 10,2 km/h (2 Bft)
14.02.2018 04:00 -1,4 C 78 % 1014,1 hPa 0,0 mm 4,3 km/h (1 Bft) S-SO 0,00 h 0,0 mm 0,0 UV-I 0 W/m -4,7 C 8,9 km/h (2 Bft)
14.02.2018 05:00 -1,7 C 79 % 1014,8 hPa 0,0 mm 4,0 km/h (1 Bft) S-SO 0,00 h 0,0 mm 0,0 UV-I 0 W/m -4,9 C 9,6 km/h (2 Bft)
14.02.2018 06:00 -2,1 C 80 % 1015,2 hPa 0,0 mm 3,5 km/h (1 Bft) S-SO 0,00 h 0,0 mm 0,0 UV-I 0 W/m -5,0 C 9,6 km/h (2 Bft)
14.02.2018 07:00 -2,5 C 82 % 1015,4 hPa 0,0 mm 3,8 km/h (1 Bft) S-SO 0,00 h 0,0 mm 0,0 UV-I 5 W/m -5,1 C 10,4 km/h (2 Bft)
14.02.2018 08:00 -2,2 C 81 % 1016,0 hPa 0,0 mm 6,5 km/h (2 Bft) S-SO 0,25 h 0,0 mm 0,0 UV-I 45 W/m -5,0 C 15,7 km/h (3 Bft)
14.02.2018 09:00 -0,9 C 78 % 1016,6 hPa 0,0 mm 8,0 km/h (2 Bft) S-SO 1,00 h 0,0 mm 0,0 UV-I 213 W/m -4,2 C 19,2 km/h (3 Bft)
14.02.2018 10:00 0,9 C 72 % 1016,9 hPa 0,0 mm 8,8 km/h (2 Bft) S-SO 1,00 h 0,1 mm 0,1 UV-I 330 W/m -3,6 C 22,9 km/h (4 Bft)
14.02.2018 11:00 2,9 C 64 % 1016,8 hPa 0,0 mm 11,2 km/h (2 Bft) S-SO 1,00 h 0,1 mm 0,1 UV-I 408 W/m -3,2 C 27,2 km/h (4 Bft)
14.02.2018 12:00 4,7 C 57 % 1016,7 hPa 0,0 mm 12,6 km/h (3 Bft) SO 1,00 h 0,2 mm 0,2 UV-I 439 W/m -3,1 C 30,4 km/h (5 Bft)
14.02.2018 13:00 5,9 C 51 % 1016,5 hPa 0,0 mm 13,5 km/h (3 Bft) S-SO 1,00 h 0,2 mm 0,3 UV-I 422 W/m -3,5 C 32,2 km/h (5 Bft)
14.02.2018 14:00 6,6 C 47 % 1016,2 hPa 0,0 mm 13,3 km/h (3 Bft) S-SO 1,00 h 0,2 mm 0,2 UV-I 361 W/m -4,0 C 32,0 km/h (5 Bft)
14.02.2018 15:00 6,3 C 45 % 1016,0 hPa 0,0 mm 12,8 km/h (3 Bft) S-SO 1,00 h 0,2 mm 0,1 UV-I 261 W/m -4,7 C 33,3 km/h (5 Bft)
14.02.2018 16:00 5,3 C 46 % 1016,0 hPa 0,0 mm 11,7 km/h (2 Bft) S 0,83 h 0,2 mm 0,0 UV-I 126 W/m -5,4 C 28,5 km/h (4 Bft)
14.02.2018 17:00 4,2 C 49 % 1016,3 hPa 0,0 mm 9,7 km/h (2 Bft) SO 0,08 h 0,1 mm 0,0 UV-I 18 W/m -5,5 C 23,1 km/h (4 Bft)
14.02.2018 18:00 3,4 C 54 % 1016,6 hPa 0,0 mm 9,1 km/h (2 Bft) S 0,00 h 0,1 mm 0,0 UV-I 0 W/m -5,1 C 22,4 km/h (4 Bft)
14.02.2018 19:00 2,9 C 57 % 1016,3 hPa 0,0 mm 9,7 km/h (2 Bft) S 0,00 h 0,0 mm 0,0 UV-I 0 W/m -4,8 C 25,0 km/h (4 Bft)
14.02.2018 20:00 2,6 C 59 % 1015,7 hPa 0,0 mm 12,1 km/h (2 Bft) S-SO 0,00 h 0,0 mm 0,0 UV-I 0 W/m -4,6 C 31,3 km/h (5 Bft)
14.02.2018 21:00 2,4 C 60 % 1015,5 hPa 0,0 mm 12,6 km/h (3 Bft) S 0,00 h 0,0 mm 0,0 UV-I 0 W/m -4,5 C 30,9 km/h (5 Bft)
14.02.2018 22:00 2,5 C 61 % 1015,1 hPa 0,0 mm 12,1 km/h (2 Bft) S 0,00 h 0,0 mm 0,0 UV-I 0 W/m -4,2 C 31,1 km/h (5 Bft)
14.02.2018 23:00 2,5 C 62 % 1014,3 hPa 0,0 mm 13,3 km/h (3 Bft) S-SO 0,00 h 0,0 mm 0,0 UV-I 0 W/m -4,0 C 32,4 km/h (5 Bft)
15.02.2018 00:00 2,6 C 62 % 1014,3 hPa 0,0 mm 14,4 km/h (3 Bft) S 0,00 h 0,0 mm 0,0 UV-I 0 W/m -3,9 C 35,2 km/h (5 Bft)
15.02.2018 01:00 2,7 C 62 % 1013,5 hPa 0,0 mm 14,8 km/h (3 Bft) S 0,00 h 0,0 mm 0,0 UV-I 0 W/m -3,9 C 37,6 km/h (5 Bft)
15.02.2018 02:00 2,7 C 61 % 1013,0 hPa 0,0 mm 14,2 km/h (3 Bft) S 0,00 h 0,0 mm 0,0 UV-I 0 W/m -4,1 C 33,1 km/h (5 Bft)
15.02.2018 03:00 2,8 C 61 % 1012,5 hPa 0,0 mm 11,6 km/h (2 Bft) S 0,00 h 0,0 mm 0,0 UV-I 0 W/m -4,0 C 29,5 km/h (5 Bft)
15.02.2018 04:00 2,0 C 75 % 1011,9 hPa 0,0 mm 15,0 km/h (3 Bft) S 0,00 h 0,0 mm 0,0 UV-I 0 W/m -1,9 C 34,1 km/h (5 Bft)
15.02.2018 05:00 0,7 C 89 % 1012,1 hPa 0,0 mm 13,3 km/h (3 Bft) S 0,00 h 0,0 mm 0,0 UV-I 0 W/m -0,8 C 29,8 km/h (5 Bft)
15.02.2018 06:00 0,4 C 94 % 1011,5 hPa 0,0 mm 14,4 km/h (3 Bft) S 0,00 h 0,0 mm 0,0 UV-I 0 W/m -0,4 C 35,0 km/h (5 Bft)
15.02.2018 07:00 0,4 C 95 % 1011,3 hPa 0,0 mm 14,1 km/h (3 Bft) S-SW 0,00 h 0,0 mm 0,0 UV-I 0 W/m -0,3 C 35,2 km/h (5 Bft)
15.02.2018 08:00 0,8 C 94 % 1011,1 hPa 0,0 mm 14,6 km/h (3 Bft) S 0,00 h 0,0 mm 0,0 UV-I 14 W/m -0,1 C 33,9 km/h (5 Bft)
15.02.2018 09:00 1,0 C 93 % 1011,3 hPa 0,0 mm 12,6 km/h (3 Bft) S-SW 0,00 h 0,0 mm 0,1 UV-I 43 W/m 0,0 C 29,6 km/h (5 Bft)
15.02.2018 10:00 1,3 C 94 % 1011,3 hPa 0,0 mm 11,6 km/h (2 Bft) S-SW 0,00 h 0,0 mm 0,1 UV-I 59 W/m 0,5 C 28,5 km/h (4 Bft)
15.02.2018 11:00 1,5 C 95 % 1011,7 hPa 0,8 mm 10,2 km/h (2 Bft) S-SW 0,00 h 0,0 mm 0,1 UV-I 50 W/m 0,8 C 22,2 km/h (4 Bft)
15.02.2018 12:00 1,9 C 96 % 1011,9 hPa 0,8 mm 10,3 km/h (2 Bft) S-SW 0,00 h 0,0 mm 0,1 UV-I 66 W/m 1,3 C 19,6 km/h (3 Bft)
15.02.2018 13:00 2,4 C 96 % 1012,2 hPa 0,4 mm 7,6 km/h (2 Bft) S-SW 0,00 h 0,0 mm 0,0 UV-I 45 W/m 1,8 C 17,0 km/h (3 Bft)
15.02.2018 14:00 2,8 C 96 % 1012,4 hPa 0,4 mm 5,6 km/h (1 Bft) S-SW 0,00 h 0,0 mm 0,0 UV-I 34 W/m 2,2 C 13,9 km/h (3 Bft)
15.02.2018 15:00 3,2 C 97 % 1012,9 hPa 0,2 mm 4,5 km/h (1 Bft) SW 0,00 h 0,0 mm 0,0 UV-I 25 W/m 2,7 C 12,0 km/h (2 Bft)
15.02.2018 16:00 3,7 C 97 % 1013,3 hPa 0,2 mm 3,8 km/h (1 Bft) S-SW 0,00 h 0,0 mm 0,0 UV-I 16 W/m 3,3 C 11,6 km/h (2 Bft)
15.02.2018 17:00 4,2 C 97 % 1014,0 hPa 0,0 mm 3,7 km/h (1 Bft) SW 0,00 h 0,0 mm 0,0 UV-I 12 W/m 3,8 C 10,7 km/h (2 Bft)
15.02.2018 18:00 4,1 C 97 % 1014,7 hPa 0,0 mm 3,5 km/h (1 Bft) S-SW 0,00 h 0,0 mm 0,0 UV-I 0 W/m 3,6 C 10,7 km/h (2 Bft)
15.02.2018 19:00 4,4 C 97 % 1015,5 hPa 1,2 mm 0,9 km/h (0 Bft) SW 0,00 h 0,0 mm 0,0 UV-I 0 W/m 4,0 C 4,2 km/h (1 Bft)
15.02.2018 20:00 4,7 C 97 % 1016,0 hPa 0,0 mm 2,2 km/h (1 Bft) W-SW 0,00 h 0,0 mm 0,0 UV-I 0 W/m 4,3 C 6,5 km/h (2 Bft)
15.02.2018 21:00 5,0 C 97 % 1016,9 hPa 0,0 mm 3,1 km/h (1 Bft) N 0,00 h 0,0 mm 0,0 UV-I 0 W/m 4,6 C 7,2 km/h (2 Bft)
15.02.2018 22:00 4,3 C 97 % 1017,6 hPa 0,0 mm 1,7 km/h (1 Bft) N 0,00 h 0,0 mm 0,0 UV-I 0 W/m 3,8 C 5,3 km/h (1 Bft)
15.02.2018 23:00 3,5 C 97 % 1018,4 hPa 0,0 mm 1,5 km/h (1 Bft) N 0,00 h 0,0 mm 0,0 UV-I 0 W/m 3,0 C 5,0 km/h (1 Bft)
16.02.2018 00:00 3,6 C 97 % 1018,9 hPa 0,0 mm 2,1 km/h (1 Bft) N-NW 0,00 h 0,0 mm 0,0 UV-I 0 W/m 3,2 C 5,9 km/h (2 Bft)
16.02.2018 01:00 3,0 C 96 % 1019,7 hPa 0,0 mm 3,3 km/h (1 Bft) N-NW 0,00 h 0,0 mm 0,0 UV-I 0 W/m 2,5 C 7,6 km/h (2 Bft)
16.02.2018 02:00 2,7 C 96 % 1020,5 hPa 0,0 mm 4,2 km/h (1 Bft) N-NW 0,00 h 0,0 mm 0,0 UV-I 0 W/m 2,2 C 8,7 km/h (2 Bft)
16.02.2018 03:00 2,6 C 96 % 1021,1 hPa 0,0 mm 2,9 km/h (1 Bft) N-NW 0,00 h 0,0 mm 0,0 UV-I 0 W/m 2,0 C 7,6 km/h (2 Bft)
16.02.2018 04:00 2,7 C 95 % 1021,8 hPa 0,0 mm 6,1 km/h (2 Bft) N-NW 0,00 h 0,0 mm 0,0 UV-I 0 W/m 2,0 C 11,1 km/h (2 Bft)
16.02.2018 05:00 2,7 C 95 % 1022,4 hPa 0,0 mm 5,5 km/h (1 Bft) N 0,00 h 0,0 mm 0,0 UV-I 0 W/m 2,0 C 13,1 km/h (3 Bft)
16.02.2018 06:00 2,7 C 95 % 1023,2 hPa 0,0 mm 5,6 km/h (1 Bft) N-NW 0,00 h 0,0 mm 0,0 UV-I 0 W/m 1,9 C 12,4 km/h (3 Bft)
16.02.2018 07:00 2,7 C 94 % 1023,7 hPa 0,0 mm 5,1 km/h (1 Bft) N-NW 0,00 h 0,0 mm 0,0 UV-I 5 W/m 1,8 C 12,2 km/h (2 Bft)
16.02.2018 08:00 2,4 C 93 % 1024,4 hPa 0,0 mm 3,9 km/h (1 Bft) N 0,08 h 0,0 mm 0,2 UV-I 45 W/m 1,5 C 10,2 km/h (2 Bft)
16.02.2018 09:00 3,4 C 90 % 1025,4 hPa 0,0 mm 7,0 km/h (2 Bft) N 0,58 h 0,0 mm 0,2 UV-I 122 W/m 1,9 C 16,1 km/h (3 Bft)
16.02.2018 10:00 4,0 C 89 % 1026,1 hPa 0,0 mm 7,0 km/h (2 Bft) N-NW 0,25 h 0,1 mm 0,2 UV-I 164 W/m 2,4 C 16,3 km/h (3 Bft)
16.02.2018 11:00 5,9 C 84 % 1026,6 hPa 0,0 mm 8,9 km/h (2 Bft) N-NO 1,00 h 0,1 mm 0,4 UV-I 396 W/m 3,4 C 20,0 km/h (4 Bft)
16.02.2018 12:00 6,9 C 78 % 1026,9 hPa 0,0 mm 7,1 km/h (2 Bft) N-NW 1,00 h 0,2 mm 0,4 UV-I 413 W/m 3,4 C 19,4 km/h (3 Bft)
16.02.2018 13:00 8,0 C 73 % 1026,9 hPa 0,0 mm 4,2 km/h (1 Bft) O 1,00 h 0,2 mm 0,4 UV-I 432 W/m 3,4 C 14,2 km/h (3 Bft)
16.02.2018 14:00 8,4 C 66 % 1026,7 hPa 0,0 mm 6,8 km/h (2 Bft) O 1,00 h 0,2 mm 0,3 UV-I 350 W/m 2,4 C 15,9 km/h (3 Bft)
16.02.2018 15:00 8,2 C 63 % 1026,6 hPa 0,0 mm 6,1 km/h (2 Bft) O 1,02 h 0,2 mm 0,2 UV-I 257 W/m 1,6 C 13,7 km/h (3 Bft)
16.02.2018 16:00 7,3 C 64 % 1026,5 hPa 0,0 mm 1,9 km/h (1 Bft) O 0,90 h 0,1 mm 0,0 UV-I 136 W/m 1,0 C 7,2 km/h (2 Bft)
16.02.2018 17:00 6,1 C 69 % 1026,7 hPa 0,0 mm 0,9 km/h (0 Bft) N-NO 0,00 h 0,1 mm 0,0 UV-I 21 W/m 0,8 C 4,2 km/h (1 Bft)
16.02.2018 18:00 3,9 C 75 % 1026,9 hPa 0,0 mm 0,0 km/h (0 Bft) N 0,00 h 0,0 mm 0,0 UV-I 0 W/m -0,0 C 0,2 km/h (0 Bft)
16.02.2018 19:00 2,4 C 82 % 1026,7 hPa 0,0 mm 0,0 km/h (0 Bft) N 0,00 h 0,0 mm 0,0 UV-I 0 W/m -0,4 C 0,6 km/h (0 Bft)
16.02.2018 20:00 1,5 C 85 % 1026,6 hPa 0,0 mm 0,2 km/h (0 Bft) N 0,00 h 0,0 mm 0,0 UV-I 0 W/m -0,7 C 1,3 km/h (1 Bft)
16.02.2018 21:00 1,2 C 87 % 1026,6 hPa 0,0 mm 0,8 km/h (0 Bft) W-SW 0,00 h 0,0 mm 0,0 UV-I 0 W/m -0,8 C 3,7 km/h (1 Bft)
16.02.2018 22:00 1,3 C 86 % 1026,7 hPa 0,0 mm 2,5 km/h (1 Bft) W-SW 0,00 h 0,0 mm 0,0 UV-I 0 W/m -0,8 C 6,3 km/h (2 Bft)
16.02.2018 23:00 0,9 C 86 % 1026,2 hPa 0,0 mm 1,1 km/h (0 Bft) W-SW 0,00 h 0,0 mm 0,0 UV-I 0 W/m -1,2 C 3,7 km/h (1 Bft)
17.02.2018 00:00 0,5 C 88 % 1026,2 hPa 0,0 mm 1,1 km/h (1 Bft) W-SW 0,00 h 0,0 mm 0,0 UV-I 0 W/m -1,2 C 4,4 km/h (1 Bft)
17.02.2018 01:00 -0,0 C 89 % 1025,7 hPa 0,0 mm 0,3 km/h (0 Bft) W-SW 0,00 h 0,0 mm 0,0 UV-I 0 W/m -1,6 C 1,8 km/h (1 Bft)
17.02.2018 02:00 -0,2 C 91 % 1025,0 hPa 0,0 mm 0,7 km/h (0 Bft) W-SW 0,00 h 0,0 mm 0,0 UV-I 0 W/m -1,5 C 3,1 km/h (1 Bft)
17.02.2018 03:00 -0,5 C 91 % 1024,8 hPa 0,0 mm 0,1 km/h (0 Bft) N 0,00 h 0,0 mm 0,0 UV-I 0 W/m -1,8 C 0,9 km/h (0 Bft)
17.02.2018 04:00 -0,8 C 92 % 1024,1 hPa 0,0 mm 0,0 km/h (0 Bft) N 0,00 h 0,0 mm 0,0 UV-I 0 W/m -1,9 C 0,0 km/h (0 Bft)
17.02.2018 05:00 -0,8 C 93 % 1023,6 hPa 0,0 mm 0,0 km/h (0 Bft) N 0,00 h 0,0 mm 0,0 UV-I 0 W/m -1,7 C 0,0 km/h (0 Bft)
17.02.2018 06:00 -0,8 C 94 % 1023,1 hPa 0,0 mm 0,0 km/h (0 Bft) N 0,00 h 0,0 mm 0,0 UV-I 0 W/m -1,6 C 0,0 km/h (0 Bft)
17.02.2018 07:00 -0,6 C 94 % 1022,6 hPa 0,0 mm 0,0 km/h (0 Bft) N 0,00 h 0,0 mm 0,0 UV-I 3 W/m -1,5 C 0,0 km/h (0 Bft)
17.02.2018 08:00 -0,5 C 94 % 1022,2 hPa 0,0 mm 0,0 km/h (0 Bft) N 0,00 h 0,0 mm 0,0 UV-I 18 W/m -1,3 C 0,0 km/h (0 Bft)
17.02.2018 09:00 -0,1 C 95 % 1022,3 hPa 0,0 mm 0,0 km/h (0 Bft) N 0,00 h 0,0 mm 0,1 UV-I 52 W/m -0,8 C 0,7 km/h (0 Bft)
17.02.2018 10:00 0,9 C 93 % 1022,2 hPa 0,0 mm 0,0 km/h (0 Bft) N 0,00 h 0,0 mm 0,1 UV-I 108 W/m -0,2 C 0,0 km/h (0 Bft)
17.02.2018 11:00 2,3 C 88 % 1022,3 hPa 0,0 mm 0,0 km/h (0 Bft) N 0,00 h 0,0 mm 0,1 UV-I 184 W/m 0,5 C 0,0 km/h (0 Bft)
17.02.2018 12:00 4,3 C 77 % 1022,2 hPa 0,0 mm 1,7 km/h (1 Bft) S-SW 0,25 h 0,1 mm 0,2 UV-I 240 W/m 0,6 C 6,2 km/h (2 Bft)
17.02.2018 13:00 5,8 C 67 % 1022,3 hPa 0,0 mm 3,1 km/h (1 Bft) S-SW 0,33 h 0,1 mm 0,3 UV-I 246 W/m 0,3 C 8,9 km/h (2 Bft)
17.02.2018 14:00 6,5 C 63 % 1022,4 hPa 0,0 mm 2,0 km/h (1 Bft) W-SW 0,75 h 0,1 mm 0,3 UV-I 261 W/m 0,1 C 6,8 km/h (2 Bft)
17.02.2018 15:00 6,6 C 62 % 1022,4 hPa 0,0 mm 2,0 km/h (1 Bft) S-SW 0,00 h 0,1 mm 0,1 UV-I 142 W/m -0,1 C 8,2 km/h (2 Bft)
17.02.2018 16:00 6,2 C 63 % 1022,6 hPa 0,0 mm 1,1 km/h (1 Bft) S-SW 0,42 h 0,1 mm 0,0 UV-I 99 W/m -0,2 C 5,3 km/h (1 Bft)
17.02.2018 17:00 5,7 C 63 % 1023,0 hPa 0,0 mm 0,6 km/h (0 Bft) S-SW 0,25 h 0,1 mm 0,0 UV-I 27 W/m -0,8 C 4,6 km/h (1 Bft)
17.02.2018 18:00 3,6 C 68 % 1023,8 hPa 0,0 mm 0,0 km/h (0 Bft) N 0,00 h 0,0 mm 0,0 UV-I 0 W/m -1,9 C 0,2 km/h (0 Bft)
17.02.2018 19:00 1,4 C 77 % 1024,4 hPa 0,0 mm 0,0 km/h (0 Bft) N 0,00 h 0,0 mm 0,0 UV-I 0 W/m -2,2 C 0,0 km/h (0 Bft)
17.02.2018 20:00 0,2 C 83 % 1024,7 hPa 0,0 mm 0,0 km/h (0 Bft) N 0,00 h 0,0 mm 0,0 UV-I 0 W/m -2,4 C 0,0 km/h (0 Bft)
17.02.2018 21:00 -0,6 C 86 % 1025,1 hPa 0,0 mm 0,0 km/h (0 Bft) N 0,00 h 0,0 mm 0,0 UV-I 0 W/m -2,7 C 0,0 km/h (0 Bft)
17.02.2018 22:00 -1,2 C 88 % 1025,8 hPa 0,0 mm 0,0 km/h (0 Bft) N 0,00 h 0,0 mm 0,0 UV-I 0 W/m -2,9 C 0,7 km/h (0 Bft)
17.02.2018 23:00 -1,1 C 90 % 1026,1 hPa 0,0 mm 1,5 km/h (1 Bft) S-SW 0,00 h 0,0 mm 0,0 UV-I 0 W/m -2,5 C 2,6 km/h (1 Bft)
18.02.2018 00:00 -1,1 C 90 % 1026,3 hPa 0,0 mm 2,2 km/h (1 Bft) N 0,00 h 0,0 mm 0,0 UV-I 0 W/m -2,5 C 0,0 km/h (0 Bft)
18.02.2018 01:00 -1,4 C 90 % 1026,3 hPa 0,0 mm 2,2 km/h (1 Bft) S-SW 0,00 h 0,0 mm 0,0 UV-I 0 W/m -2,8 C 4,8 km/h (1 Bft)
18.02.2018 02:00 -1,6 C 92 % 1026,7 hPa 0,0 mm 1,7 km/h (1 Bft) SW 0,00 h 0,0 mm 0,0 UV-I 0 W/m -2,7 C 4,8 km/h (1 Bft)
18.02.2018 03:00 -1,9 C 91 % 1026,8 hPa 0,0 mm 1,8 km/h (1 Bft) SW 0,00 h 0,0 mm 0,0 UV-I 0 W/m -3,2 C 5,3 km/h (1 Bft)
18.02.2018 04:00 -2,1 C 91 % 1026,6 hPa 0,0 mm 3,1 km/h (1 Bft) S-SW 0,00 h 0,0 mm 0,0 UV-I 0 W/m -3,4 C 7,5 km/h (2 Bft)
18.02.2018 05:00 -2,2 C 91 % 1026,6 hPa 0,0 mm 3,1 km/h (1 Bft) S-SW 0,00 h 0,0 mm 0,0 UV-I 0 W/m -3,5 C 8,2 km/h (2 Bft)
18.02.2018 06:00 -2,2 C 91 % 1026,8 hPa 0,0 mm 3,9 km/h (1 Bft) S-SW 0,00 h 0,0 mm 0,0 UV-I 0 W/m -3,5 C 9,4 km/h (2 Bft)
18.02.2018 07:00 -2,5 C 92 % 1026,9 hPa 0,0 mm 3,5 km/h (1 Bft) S-SW 0,00 h 0,0 mm 0,0 UV-I 7 W/m -3,6 C 9,1 km/h (2 Bft)
18.02.2018 08:00 -2,1 C 94 % 1027,0 hPa 0,0 mm 4,0 km/h (1 Bft) S-SW 0,25 h 0,0 mm 0,0 UV-I 63 W/m -2,9 C 11,2 km/h (2 Bft)
18.02.2018 09:00 -0,6 C 92 % 1026,9 hPa 0,0 mm 5,6 km/h (1 Bft) S-SW 1,00 h 0,0 mm 0,0 UV-I 211 W/m -1,8 C 14,1 km/h (3 Bft)
18.02.2018 10:00 1,4 C 86 % 1027,0 hPa 0,0 mm 7,8 km/h (2 Bft) S-SW 1,00 h 0,1 mm 0,1 UV-I 323 W/m -0,7 C 16,1 km/h (3 Bft)
18.02.2018 11:00 3,7 C 77 % 1027,1 hPa 0,0 mm 7,6 km/h (2 Bft) S-SW 1,00 h 0,1 mm 0,2 UV-I 404 W/m 0,1 C 15,8 km/h (3 Bft)
18.02.2018 12:00 5,6 C 70 % 1027,0 hPa 0,0 mm 7,2 km/h (2 Bft) S-SW 1,00 h 0,2 mm 0,3 UV-I 434 W/m 0,5 C 15,1 km/h (3 Bft)
18.02.2018 13:00 7,5 C 62 % 1026,6 hPa 0,0 mm 6,1 km/h (2 Bft) SW 1,00 h 0,2 mm 0,4 UV-I 423 W/m 0,7 C 14,4 km/h (3 Bft)
18.02.2018 14:00 8,6 C 54 % 1025,9 hPa 0,0 mm 7,2 km/h (2 Bft) S-SW 1,00 h 0,2 mm 0,3 UV-I 350 W/m -0,2 C 17,3 km/h (3 Bft)
18.02.2018 15:00 8,1 C 54 % 1025,6 hPa 0,0 mm 6,9 km/h (2 Bft) S-SW 0,83 h 0,2 mm 0,1 UV-I 200 W/m -0,7 C 15,4 km/h (3 Bft)
18.02.2018 16:00 6,9 C 59 % 1025,3 hPa 0,0 mm 5,7 km/h (1 Bft) SW 0,33 h 0,1 mm 0,0 UV-I 97 W/m -0,5 C 13,2 km/h (3 Bft)
18.02.2018 17:00 6,0 C 60 % 1025,1 hPa 0,0 mm 7,4 km/h (2 Bft) S-SW 0,25 h 0,1 mm 0,0 UV-I 26 W/m -1,2 C 14,8 km/h (3 Bft)
18.02.2018 18:00 4,6 C 67 % 1025,1 hPa 0,0 mm 5,5 km/h (1 Bft) S-SW 0,00 h 0,0 mm 0,0 UV-I 0 W/m -1,0 C 12,7 km/h (3 Bft)
18.02.2018 19:00 3,3 C 73 % 1024,9 hPa 0,0 mm 2,2 km/h (1 Bft) SW 0,00 h 0,0 mm 0,0 UV-I 0 W/m -1,2 C 6,0 km/h (2 Bft)
18.02.2018 20:00 2,5 C 77 % 1024,9 hPa 0,0 mm 3,7 km/h (1 Bft) SW 0,00 h 0,0 mm 0,0 UV-I 0 W/m -1,2 C 8,9 km/h (2 Bft)
18.02.2018 21:00 1,7 C 79 % 1024,8 hPa 0,0 mm 3,5 km/h (1 Bft) W-SW 0,00 h 0,0 mm 0,0 UV-I 0 W/m -1,5 C 9,3 km/h (2 Bft)
18.02.2018 22:00 1,6 C 79 % 1024,4 hPa 0,0 mm 3,9 km/h (1 Bft) W-SW 0,00 h 0,0 mm 0,0 UV-I 0 W/m -1,6 C 8,9 km/h (2 Bft)
18.02.2018 23:00 0,9 C 82 % 1024,1 hPa 0,0 mm 2,8 km/h (1 Bft) W-SW 0,00 h 0,0 mm 0,0 UV-I 0 W/m -1,8 C 7,7 km/h (2 Bft)
Min-Datum _ 14.02.18 14.02.18 12.02.18 - 12.02.18 - - - - - 14.02.18 12.02.18
_ Min-Zeit 07:35 15:10 00:00 - 20:25 - - - - - 17:45 20:25
Minimum _ -2,6 C 44 % 1006,7 hPa - 0,0 km/h (0 Bft) - - - - - -5,8 C 0,0 km/h (0 Bft)
Max-Datum _ 18.02.18 15.02.18 18.02.18 15.02.18 12.02.18 - 16.02.18 14.02.18 18.02.18 16.02.18 15.02.18 12.02.18
_ Max-Zeit 14:45 20:50 11:20 19:15 15:40 - 13:26 13:00 13:05 13:30 21:15 15:40
Maximum _ 8,9 C 98 % 1027,2 hPa 1,2 mm 26,9 km/h
NW (4 Bft)
- 0,10 h 0,2 mm 0,5 UV-I 476 W/m 4,9 C 55,5 km/h
N-NW (7 Bft)
Durchschnitt _ 2,1 C 80 % 1018,5 hPa #5,2 mm 6,0 km/h (2 Bft) S-SW #35:00 h #6,398 mm 0,2 UV-I 171 W/m -1,1 C 14,5 km/h (3 Bft)



© 1998 - 2018 www.pulheimwetter.de